Weather History for KPPQ - May, 2013

Change the Weather History Date:

Monday, May 27, 2013

  Actual Average (KUIN) Record (KUIN)
Temperature  
Mean Temperature 69 °F 66 °F  
Max Temperature 74 °F 76 °F 94 °F (1911)
Min Temperature 64 °F 56 °F 34 °F (1907)
Degree Days  
Heating Degree Days 0 2  
Month to date heating degree days 128  
Since 1 July heating degree days 5558  
Cooling Degree Days 4 3  
Month to date cooling degree days 51  
Year to date cooling degree days 69  
Growing Degree Days 19 (Base 50)    
Moisture  
Dew Point 64 °F    
Average Humidity 86    
Maximum Humidity 93    
Minimum Humidity 74    
Precipitation  
Precipitation 1.36 in 0.16 in 2.75 in (1973)
Month to date precipitation 3.92  
Year to date precipitation 13.47  
Sea Level Pressure  
Sea Level Pressure 29.91 in    
Wind  
Wind Speed 6 mph (SSE)    
Max Wind Speed 17 mph    
Max Gust Speed 21 mph    
Visibility 9 miles    
Events Rain , Thunderstorm    
T = Trace of Precipitation, MM = Missing Value Source: NWS Daily Summary

Daily Weather History Graph

Daily Weather History Graph

Search for Another Location

Airport or City:

Trip Planner

Search our weather history database for the weather conditions in past years. The results will help you decide how hot, cold, wet, or windy it might be!

Date:

Astronomy

May. 27, 2013 Rise Set
Actual Time 5:39 AM CDT 8:21 PM CDT
Civil Twilight 5:08 AM CDT 8:52 PM CDT
Nautical Twilight 4:28 AM CDT 9:32 PM CDT
Astronomical Twilight 3:44 AM CDT 10:17 PM CDT
Moon 11:00 PM CDT (5/27) 8:17 AM CDT (5/27)
Length of Visible Light 15h 44m
Length of Day
14h 41m
Waning Gibbous, 91% of the Moon is Illuminated
May 27
Waning Gibbous
May 31
Last Quarter
Jun 8
New
Jun 16
First Quarter
Jun 23
Full

Hourly Weather History & Observations

Time (CDT) Temp. Dew Point Humidity Pressure Visibility Wind Dir Wind Speed Gust Speed Precip Events Conditions
12:15 AM 66.4 °F 63.7 °F 91% 30.00 in 10.0 mi East 4.6 mph - N/A   Scattered Clouds
12:35 AM 65.8 °F 63.5 °F 92% 29.98 in 7.0 mi ESE 6.9 mph - 0.01 in Thunderstorm Mostly Cloudy
12:55 AM 66.7 °F 64.0 °F 91% 29.99 in 10.0 mi SSE 11.5 mph 16.1 mph 0.13 in Rain , Thunderstorm Light Thunderstorms and Rain
1:15 AM 67.1 °F 64.0 °F 90% 29.99 in 10.0 mi SSE 9.2 mph - N/A Thunderstorm Overcast
1:35 AM 66.7 °F 63.7 °F 90% 29.99 in 10.0 mi North 8.1 mph - N/A   Overcast
1:55 AM 65.7 °F 63.3 °F 92% 29.98 in 7.0 mi ENE 5.8 mph - N/A   Overcast
2:15 AM 66.2 °F 63.1 °F 90% 29.97 in 10.0 mi ESE 6.9 mph - N/A   Mostly Cloudy
2:35 AM 67.5 °F 62.6 °F 84% 29.96 in 10.0 mi ENE 5.8 mph - N/A Rain , Thunderstorm Light Thunderstorms and Rain
2:55 AM 66.4 °F 62.6 °F 88% 29.96 in 10.0 mi ESE 8.1 mph - 0.03 in Rain , Thunderstorm Light Thunderstorms and Rain
3:15 AM 66.2 °F 63.0 °F 89% 29.96 in 10.0 mi East 3.5 mph - 0.02 in Rain , Thunderstorm Rain
3:35 AM 65.7 °F 63.1 °F 92% 29.94 in 10.0 mi NE 6.9 mph - 0.03 in Rain Light Rain
3:55 AM 65.5 °F 63.1 °F 92% 29.91 in 10.0 mi ENE 9.2 mph - 0.04 in Rain Light Rain
4:15 AM 65.3 °F 63.1 °F 93% 29.91 in 7.0 mi NNE 9.2 mph - N/A   Mostly Cloudy
4:35 AM 64.8 °F 62.6 °F 93% 29.90 in 7.0 mi NE 8.1 mph - N/A   Overcast
4:55 AM 64.8 °F 62.8 °F 93% 29.93 in 7.0 mi West 3.5 mph - N/A   Overcast
5:15 AM 64.8 °F 62.6 °F 93% 29.93 in 7.0 mi Calm Calm - N/A   Overcast
5:35 AM 66.2 °F 63.0 °F 89% 29.94 in 10.0 mi WSW 11.5 mph 17.3 mph N/A   Overcast
5:55 AM 65.7 °F 62.6 °F 90% 29.95 in 10.0 mi WSW 9.2 mph 17.3 mph N/A   Overcast
6:15 AM 65.7 °F 62.4 °F 89% 29.95 in 10.0 mi WSW 10.4 mph 20.7 mph N/A   Overcast
6:35 AM 65.5 °F 62.6 °F 90% 29.95 in 10.0 mi WSW 9.2 mph - N/A   Mostly Cloudy
6:55 AM 66.2 °F 62.4 °F 88% 29.95 in 10.0 mi WSW 9.2 mph - N/A   Clear
7:15 AM 66.9 °F 62.6 °F 86% 29.95 in 10.0 mi West 6.9 mph - N/A   Clear
7:35 AM 67.5 °F 62.6 °F 84% 29.96 in 10.0 mi West 6.9 mph - N/A   Clear
7:55 AM 68.0 °F 63.1 °F 84% 29.99 in 10.0 mi WNW 8.1 mph - N/A   Scattered Clouds
8:15 AM 68.0 °F 63.1 °F 84% 29.99 in 10.0 mi WNW 8.1 mph - N/A   Scattered Clouds
8:35 AM 68.4 °F 63.1 °F 83% 29.98 in 10.0 mi NW 9.2 mph - N/A   Clear
8:55 AM 68.9 °F 63.5 °F 83% 29.97 in 10.0 mi NNW 4.6 mph - N/A   Clear
9:15 AM 70.0 °F 63.7 °F 80% 29.96 in 10.0 mi NW 5.8 mph - N/A   Clear
9:35 AM 70.0 °F 63.0 °F 78% 29.96 in 10.0 mi NNW 3.5 mph - N/A   Scattered Clouds
9:55 AM 70.7 °F 63.7 °F 78% 29.95 in 10.0 mi Calm Calm - N/A   Scattered Clouds
10:15 AM 72.0 °F 64.6 °F 77% 29.95 in 10.0 mi Calm Calm - N/A   Scattered Clouds
10:35 AM 71.8 °F 64.6 °F 78% 29.94 in 10.0 mi ESE 6.9 mph - N/A   Scattered Clouds
10:55 AM 72.3 °F 65.3 °F 78% 29.93 in 10.0 mi SE 6.9 mph - N/A   Clear
11:15 AM 73.4 °F 64.6 °F 74% 29.93 in 10.0 mi SSE 8.1 mph - N/A   Clear
11:35 AM 74.1 °F 65.8 °F 75% 29.93 in 10.0 mi SE 6.9 mph - N/A Thunderstorm Clear
11:55 AM 73.8 °F 64.9 °F 74% 29.93 in 10.0 mi SE 10.4 mph - N/A   Clear
12:15 PM 73.0 °F 65.1 °F 76% 29.93 in 10.0 mi ESE 8.1 mph - N/A Thunderstorm Thunderstorm
12:35 PM 72.3 °F 65.1 °F 78% 29.94 in 7.0 mi Calm Calm - 0.01 in Rain , Thunderstorm Thunderstorms and Rain
12:55 PM 70.2 °F 65.3 °F 85% 29.93 in 2.5 mi East 3.5 mph - 0.13 in Rain , Thunderstorm Light Thunderstorms and Rain
1:15 PM 67.8 °F 64.8 °F 90% 29.97 in 1.0 mi NW 10.4 mph 19.6 mph 0.45 in Rain , Thunderstorm Heavy Thunderstorms and Rain
1:35 PM 67.3 °F 64.8 °F 92% 29.95 in 2.0 mi NNW 6.9 mph - 0.75 in Rain , Thunderstorm Heavy Thunderstorms and Rain
1:55 PM 67.3 °F 64.6 °F 91% 29.94 in 5.0 mi NNW 5.8 mph - 0.80 in Rain , Thunderstorm Heavy Thunderstorms and Rain
2:15 PM 67.1 °F 64.6 °F 92% 29.96 in 4.0 mi Calm Calm - 0.04 in Rain Rain
2:35 PM 67.3 °F 64.8 °F 92% 29.96 in 4.0 mi SW 4.6 mph - 0.12 in Rain , Thunderstorm Heavy Thunderstorms and Rain
2:55 PM 67.3 °F 64.4 °F 90% 29.94 in 5.0 mi SW 6.9 mph - 0.18 in Rain Rain
3:15 PM 67.1 °F 63.7 °F 89% 29.90 in 10.0 mi South 6.9 mph - 0.03 in Rain Rain
3:35 PM 67.1 °F 63.5 °F 88% 29.83 in 10.0 mi SSE 8.1 mph - 0.05 in Rain , Thunderstorm Light Thunderstorms and Rain
3:55 PM 67.1 °F 62.4 °F 85% 29.76 in 10.0 mi SSE 16.1 mph 20.7 mph 0.05 in Rain Light Rain
4:15 PM 67.3 °F 61.9 °F 83% 29.73 in 10.0 mi SSE 17.3 mph 20.7 mph N/A   Clear
4:35 PM 67.1 °F 62.1 °F 84% 29.72 in 10.0 mi SE 12.7 mph 19.6 mph N/A   Clear
4:55 PM 67.3 °F 62.6 °F 85% 29.76 in 10.0 mi South 4.6 mph - N/A   Clear
5:15 PM 68.0 °F 62.4 °F 82% 29.78 in 10.0 mi Calm Calm - N/A   Clear
5:35 PM 69.4 °F 63.0 °F 80% 29.79 in 10.0 mi WNW 3.5 mph - N/A   Clear
5:55 PM 70.0 °F 63.7 °F 80% 29.80 in 10.0 mi NW 5.8 mph - N/A   Clear
6:15 PM 70.3 °F 63.7 °F 79% 29.81 in 10.0 mi Calm Calm - N/A   Clear
6:35 PM 70.7 °F 64.0 °F 79% 29.82 in 10.0 mi Calm Calm - N/A   Clear
6:55 PM 70.7 °F 63.9 °F 79% 29.83 in 10.0 mi Calm Calm - N/A   Clear
7:15 PM 71.2 °F 63.3 °F 76% 29.83 in 10.0 mi Calm Calm - N/A   Clear
7:35 PM 70.9 °F 64.0 °F 79% 29.84 in 10.0 mi Calm Calm - N/A   Clear
7:55 PM 70.3 °F 64.4 °F 81% 29.84 in 10.0 mi Calm Calm - N/A   Clear
8:15 PM 68.4 °F 65.5 °F 90% 29.84 in 10.0 mi Calm Calm - N/A   Clear
8:35 PM 68.0 °F 65.3 °F 91% 29.84 in 10.0 mi Calm Calm - N/A   Clear
8:55 PM 66.9 °F 64.6 °F 92% 29.84 in 10.0 mi Calm Calm - N/A   Clear
9:15 PM 68.0 °F 62.8 °F 83% 29.84 in 10.0 mi Calm Calm - N/A   Clear
9:35 PM 66.6 °F 62.8 °F 88% 29.85 in 10.0 mi Calm Calm - N/A   Clear
9:55 PM 65.1 °F 62.4 °F 91% 29.85 in 10.0 mi ESE 3.5 mph - N/A   Clear
10:15 PM 65.3 °F 62.8 °F 92% 29.87 in 10.0 mi Calm Calm - N/A   Clear
10:35 PM 64.4 °F 62.4 °F 93% 29.88 in 10.0 mi Calm Calm - N/A   Scattered Clouds
10:55 PM 64.8 °F 62.8 °F 93% 29.87 in 10.0 mi SE 4.6 mph - N/A   Scattered Clouds
11:15 PM 66.4 °F 62.4 °F 87% 29.86 in 10.0 mi SSE 10.4 mph - N/A   Scattered Clouds
11:35 PM 66.4 °F 62.2 °F 86% 29.86 in 10.0 mi SSE 11.5 mph - N/A   Clear
11:55 PM 66.2 °F 62.2 °F 87% 29.85 in 10.0 mi SSE 10.4 mph - N/A   Clear